Content
SEND FEEDBACK

Daily
Averages
Monthly
Summary
Canada

SCUDDER, ONTARIO


Home > North America > Canada > Ontario
Elevation: 574 feet     Latitude: 41 45N     Longitude: 082 40W

WEATHER
 
SELECT A DAY
Number of Records: 124,809;   Date Range: 12/10/00 - 10/19/14
 
SHARE

PRINT THIS DATA

[ ← Previous Day ]
WEATHER ALMANAC - FEBRUARY 3, 2014
[ Next Day → ]
[ °C ]   °F
Weather ElementAverageHighLow
Temperature17.1 °F24.8 °F (3:00 pm)12.2 °F (8:00 am)
Dewpoint11.4 °F14.9 °F (12:00 pm)7.9 °F (9:00 am)
Humidity77.4 %94 % (9:00 pm)57 % (3:00 pm)
Barometer30.35 in30.43 in (11:00 pm)30.27 in (2:00 am)
Wind Speed3 mph5.8 mph (5:00 pm)
Weather ElementAverage
Wind DirectionESE (97.3 °)

Weather ElementTotal
Precipitation---
Heating Degree Days46.5 (Base 65)
Averaged from 27 records on February 3, 2014
WEATHER CONDITIONS BREAKOUT
WIND DIRECTION BREAKOUT
WEATHER BY HOUR - FEBRUARY 3, 2014
[ °C ]   °F
Local TimeTemperatureDewpointHumidityBarometerVisibilityWind DirectionWind SpeedGust SpeedPrecipitationEventsConditions
1:00 AM19.0 °F14.0 °F72 %30.28 inNNE (20°)2.3 mph
1:00 AM19.4 °F13.8 °F79 %30.28 inNNE (20°)2.3 mph
2:00 AM18.7 °F13.8 °F81 %30.27 inNorth (360°)2.3 mph
3:00 AM18.7 °F14.2 °F83 %30.29 inNE (40°)4.6 mph
4:00 AM16.5 °F12.2 °F83 %30.27 inNNE (20°)4.6 mph
5:00 AM15.3 °F10.9 °F83 %30.27 inNorth (10°)3.5 mph
6:00 AM14.7 °F10.2 °F82 %30.29 inNorth (10°)3.5 mph
7:00 AM13.0 °F9.0 °F76 %30.30 inNorth (10°)3.5 mph
7:00 AM14.9 °F8.8 °F77 %30.30 inNorth (10°)3.5 mph
8:00 AM12.2 °F8.6 °F85 %30.33 inNNE (20°)3.5 mph
9:00 AM13.6 °F7.9 °F78 %30.35 inENE (60°)4.6 mph
10:00 AM15.6 °F10.0 °F79 %30.37 inNNE (20°)4.6 mph
11:00 AM17.8 °F11.5 °F76 %30.39 inNNE (30°)3.5 mph
12:00 PM19.4 °F14.9 °F83 %30.37 inNNE (30°)3.5 mph
1:00 PM20.0 °F12.0 °F61 %30.35 inNNE (20°)2.3 mph
1:00 PM20.1 °F12.2 °F71 %30.35 inNNE (20°)2.3 mph
2:00 PM22.8 °F11.8 °F63 %30.35 inNW (320°)1.2 mph
3:00 PM24.8 °F11.5 °F57 %30.35 inCalm
4:00 PM21.7 °F12.4 °F67 %30.37 inSW (220°)4.6 mph
5:00 PM20.8 °F11.7 °F68 %30.40 inSW (230°)5.8 mph
6:00 PM18.1 °F11.3 °F75 %30.38 inSouth (190°)3.5 mph
7:00 PM14.0 °F11.0 °F81 %30.39 inCalm
7:00 PM14.4 °F10.8 °F86 %30.39 inCalm
8:00 PM14.9 °F10.9 °F84 %30.40 inSSW (210°)3.5 mph
9:00 PM12.7 °F11.3 °F94 %30.41 inSSW (210°)2.3 mph
10:00 PM12.7 °F9.0 °F85 %30.41 inSW (220°)2.3 mph
11:00 PM15.4 °F10.9 °F82 %30.43 inSW (230°)4.6 mph
Hourly data recorded from CXHA, located miles away from Scudder, Ontario







STORIES FROM OUR PARTNERS